Hourly Data Report for September 22, 2021

MUSKOKA
ONTARIO
Current Station Operator: NAVCAN

44°58'29.000" N
79°18'12.000" W
281.90 m
6115529
71532
YQA

Download Data

Hourly Data (September 2021)
Hourly Data Report for September 22, 2021
TIME
LST
Temp Definition
°C
Dew Point Definition
°C
Rel Hum Definition
%
Precip. Amount Definition
mm

Wind Dir Definition
10's deg

Wind Spd Definition
km/h
Visibility Definition
km
Stn Press Definition
kPa
Hmdx Definition


Wind Chill Definition


Weather Definition


00:00 15.5 15.2 98 1.0 31 9 2.0 98.29     Rain, Fog
01:00 15.2 14.9 98 2.8 32 9 11.3 98.25     Rain
02:00 15.0 14.7 98 3.2 34 8 4.8 98.18     Moderate Rain, Fog
03:00 15.1 14.8 98 3.2 29 9 6.4 98.16     Rain, Fog
04:00 15.0 14.7 98 2.5 34 13 2.8 98.13     Rain, Fog
05:00 13.3 12.8 97 1.2 33 22 4.0 98.17     Rain, Fog
06:00 12.8 12.3 97 1.2 36 11 4.0 98.15     Rain, Fog
07:00 12.2 11.6 96 4.2 36 13 12.9 98.16     Moderate Rain
08:00 12.2 11.4 95 2.0 2 9 9.7 98.15     Rain, Fog
09:00 12.0 11.4 96 1.8 1 13 11.3 98.14     Rain
10:00 11.9 11.1 95 0.5 2 9 14.5 98.13     Rain
11:00 11.5 10.9 96 0.5 35 11 4.8 98.13     Rain, Fog
12:00 11.3 10.7 96 3.2 36 13 6.4 98.08     Rain, Fog
13:00 11.4 10.8 96 0.5 1 11 4.8 98.01     Rain, Fog
14:00 11.3 10.7 96 2.5 1 13 3.2 98.00     Rain, Fog
15:00 11.6 10.8 95 0.8 36 15 4.8 97.91     Rain, Fog
16:00 11.6 10.8 95 0.5 2 15 16.1 97.83     Rain
17:00 11.3 10.5 95 0.8 2 11 6.4 97.79     Rain, Fog
18:00 10.8 10.0 95 1.2 1 13 2.8 97.79     Rain, Fog
19:00 10.4 9.8 96 0.8 2 15 3.2 97.83     Rain, Fog
20:00 9.9 9.1 95 0.5 1 13 4.8 97.84     Rain, Fog
21:00 9.6 8.8 95 13.9 1 15 3.2 97.80     Moderate Rain, Fog
22:00 9.5 8.6 94 3.0 3 11 16.1 97.74     Rain
23:00 9.4 8.5 94 1.0 4 17 16.1 97.71     Rain

Notes on Data Quality.

Legend

  • E = Estimated
  • M = Missing
  • NA = Not Available*
  • [empty] = Indicates an unobserved value
Date modified: